Notices

What's New in latest Release from April 7th, 2021:

- Updated Glossary, including Speed of Maximum Gust, and Total Hourly Precipitation

- Updated national and regional climate services offices contacts and prices information

- Addition of station inventory lists for 1981-2010, 1971-2000, and 1961-1990 Normals.

If you haven't already, please take our survey and provide feedback about our website: https://eccc.sondage-survey.ca/f/LanguageSelection.aspx?s=442ca660-fcf1-47c0-95a9-59707d6fd709

Hourly Data Report for June 27, 2020

TRENTON A
ONTARIO
Current Station Operator: DND

44°07'00.000" N
77°32'00.000" W
86.30 m
6158875
71621
YTR

Download Data

Hourly Data (June 2020)
Hourly Data Report for June 27, 2020
TIME
LST
Temp Definition
°C
Dew Point Definition
°C
Rel Hum Definition
%
Precip. Amount Definition
mm

Wind Dir Definition
10's deg

Wind Spd Definition
km/h
Visibility Definition
km
Stn Press Definition
kPa
Hmdx Definition


Wind Chill Definition


Weather Definition


00:00 20.0 13.7 67   20 9 24.1 99.86     Clear
01:00 19.8 13.9 69   22 11 24.1 99.85     Clear
02:00 19.2 14.3 73   18 8 24.1 99.78     Mainly Clear
03:00 18.6 14.1 75   20 5 24.1 99.73     Mostly Cloudy
04:00 18.5 14.4 77   19 5 24.1 99.74     Cloudy
05:00 18.5 14.5 78   18 5 24.1 99.64     Cloudy
06:00 19.0 15.1 78   20 9 24.1 99.60     Mostly Cloudy
07:00 19.3 15.4 78   18 11 24.1 99.56     Cloudy
08:00 18.8 17.9 95   20 8 16.1 99.55     Rain Showers
09:00 19.3 19.0 98   21 9 9.7 99.52     Rain Showers,Fog
10:00 19.2 18.6 96   19 9 11.3 99.55     Cloudy
11:00 20.0 18.8 93   22 11 16.1 99.53 27   Cloudy
12:00 21.1 19.1 88   20 17 16.1 99.52 28   Cloudy
13:00 21.2 19.3 89   21 18 16.1 99.45 28   Cloudy
14:00 22.1 19.6 86   22 17 16.1 99.42 29   Mostly Cloudy
15:00 23.1 19.4 80   22 21 24.1 99.36 30   Mostly Cloudy
16:00 26.9 19.6 64   23 28 24.1 99.29 34   Mostly Cloudy
17:00 26.5 19.7 66   23 21 24.1 99.34 34   Mainly Clear
18:00 25.7 20.3 72   25 24 24.1 99.37 34   Mainly Clear
19:00 24.8 20.1 75   22 15 24.1 99.35 32   Mainly Clear
20:00 22.6 19.5 83   22 9 24.1 99.44 30   Mostly Cloudy
21:00 20.9 19.5 92   16 4 24.1 99.48 28   Mostly Cloudy
22:00 21.3 19.2 88   21 9 24.1 99.50 28   Mainly Clear
23:00 20.5 18.9 91   20 8 24.1 99.50 27   Mainly Clear

Notes on Data Quality.

Legend

  • E = Estimated
  • M = Missing
  • NA = Not Available*
  • [empty] = Indicates an unobserved value
Date modified: